Voltar ao catálogo

DELTA 1 DEB

AtivoSSO
NORAD 21368·DEBRIS·🇺🇸 United States

Lançado Jun 12, 1975 de Vandenberg Space Force Base

Loading…

Próximas Passagens (próximas 24 horas)

TLE

AtualizadoSource: Space-Track

Época: Sep 13, 2026, 10:44 UTC

1 21368U 75052CN  26256.44739484 -.00000017  00000-0  35012-4 0  9997
2 21368  99.5479  60.2542 0076006   6.4611  57.2454 13.59344579751494

Acompanhe DELTA 1 DEB em tempo real com AllMySat

Download on the App Store